Location: Sungai Kamana Besar
(2.6333°N, 113.4333°E)
Time: 04:33:17
(UTC+00:00)

Ariane H10-3 - Pass Details

Date: 29 May 2022
Orbit: 330 x 24050 km, 7.7° (Epoch: 26 June)

Event Time Altitude Azimuth Distance (km) Brightness Sun altitude
Rises 11:59:15 0° 278° (W) 3,910 8.0 -21.0°
Reaches altitude 10° 12:03:02 10° 279° (W) 1,946 6.2 -21.9°
Enters shadow 12:05:51 47° 283° (WNW) 524 2.6 -22.5°
